CZ-4 DEB, 26300

Orbit data source: Space-Track

CZ-4 DEB, 26300 is space debris in SSO originally from a launch on Thu, 14 Oct 1999 UTC launched from the Taiyaun Space Center, China (TSC). Debris objects in space refer to the collection of defunct objects orbiting the Earth. Examples of debris include non-operational satellites, rocket bodies, and fragments generated from explosions, collisions, or faulty payload assembly.

Loading next visibility...
Identifier
26300, 1999-057GL
Orbit
SSO
Country
Flag of CNCN / PRC
Related business
Manufacturer
Unknown
Mission
Spacecraft
Bus & Motor
Unknown
Mass
Unknown
Launch date (UTC)
1999-10-14 (26 years ago)
Launch vehicle
Unknown
Launch site
Taiyaun Space Center, China (TSC)
Object type
Payload
Rocket body
Debris
Shape & HBR
Unknown shape, 0.1 m
Radar Cross Section
Small (<0.1 m²)

Expand to show TLE details & history
Last TLE update: 15 hours ago

TLE from 15 hours ago
0 CZ-4 DEB
1 26300U 99057GL  25296.67038978  .00005894  00000-0  10295-2 0  9998
2 26300  98.3842 356.2726 0060275 269.8717 214.4663 14.67129909351416
Epoch: 2025-10-23T16:05Z
TLE epoch observation values (Epoch: 2025-10-23T16:05:21.676Z)
Latitude
55.25315°
Longitude
-85.19307°
Altitude
714.518 km
Speed
7.485 km/s
True Right ascension
12h 33m 53s
True Declination
55° 05' 27"
Sunlit
Object was in daylight at epoch
Visualization orbit readout
Latitude
Unknown
Longitude
Unknown
Altitude
Unknown
Speed
Unknown
Apparent Right ascension
Unknown
Apparent Declination
Unknown
Sunlit
N/A
Visualization observer readout
Local Sidereal Time
02:14:19
Azimuth
Unknown
Elevation
Unknown
Doppler factor
Unknown
Orbital elements
Apogee altitude
709.792 km
Perigee altitude
624.859 km
Semi-major axis
7,045.463 km
Eccentricity
0.00603
Inclination
98.3842°
RAAN
356.2726°
Arg. of periapsis
269.8717°
True anomaly
214.07783°
Mean anomaly
214.4663°
Eccentric anomaly
214.27183°
Mean motion
3.67011 °/min
Orbital period
98.09 mins
BSTAR
0.0010295
Loading maneuver chart data...
Computing Atmospheric mass density...

Documentation

Showing up to 5 results
|